Change the Weather History Date:

Wednesday, May 8, 2013

  Actual Average Record
Temperature  
Mean Temperature 66 °F -  
Max Temperature 86 °F 64 °F 86 °F (2007)
Min Temperature 46 °F 39 °F 28 °F (1999)
Cooling Degree Days 1    
Growing Degree Days 16 (Base 50)    
Moisture  
Dew Point 46 °F    
Average Humidity 62    
Maximum Humidity 93    
Minimum Humidity 21    
Precipitation  
Precipitation 0.00 in - - ()
Sea Level Pressure  
Sea Level Pressure 29.93 in    
Wind  
Wind Speed 1 mph (ENE)    
Max Wind Speed 5 mph    
Max Gust Speed -    
Averages and records for this station are not official NWS values.
T = Trace of Precipitation, MM = Missing Value Source: NWS Daily Summary

Daily Weather History Graph

Daily Weather History Graph

Search for Another Location

Airport or City:

Trip Planner

Search our weather history database for the weather conditions in past years. The results will help you decide how hot, cold, wet, or windy it might be!

Date:

Astronomy

May. 08, 2013 Rise Set
Actual Time 6:18 AM MDT 9:00 PM MDT
Civil Twilight 5:44 AM MDT 9:34 PM MDT
Nautical Twilight 5:00 AM MDT 10:18 PM MDT
Astronomical Twilight 4:10 AM MDT 11:08 PM MDT
Moon 5:33 AM MDT (5/8) 8:00 PM MDT (5/8)
Length of Visible Light 15h 50m
Length of Day
14h 41m
Waning Crescent, 2% of the Moon is Illuminated
May 8
Waning Crescent
May 9
New
May 17
First Quarter
May 24
Full
May 31
Last Quarter

Hourly Weather History & Observations

Time (MDT) Temp. Dew Point Humidity Pressure Visibility Wind Dir Wind Speed Gust Speed Precip Events Conditions
12:52 AM 53.1 °F 46.9 °F 80% 29.89 in - Calm Calm - N/A   Unknown
1:52 AM 51.1 °F 46.0 °F 83% 29.91 in - North 3.5 mph - N/A   Unknown
2:52 AM 50.0 °F 45.0 °F 83% 29.91 in - North 3.5 mph - N/A   Unknown
3:52 AM 48.9 °F 45.0 °F 86% 29.93 in - Calm Calm - N/A   Unknown
4:52 AM 48.0 °F 44.1 °F 86% 29.95 in - Calm Calm - N/A   Unknown
5:52 AM 46.9 °F 44.1 °F 90% 29.98 in - North 3.5 mph - N/A   Unknown
6:52 AM 46.0 °F 44.1 °F 93% 30.01 in - Calm Calm - N/A   Unknown
7:52 AM 46.0 °F 43.0 °F 89% 30.04 in - Calm Calm - N/A   Unknown
8:52 AM 51.1 °F 45.0 °F 80% 30.03 in - Calm Calm - N/A   Unknown
9:52 AM 57.9 °F 45.0 °F 62% 30.01 in - Calm Calm - N/A   Unknown
10:52 AM 64.0 °F 44.1 °F 48% 29.98 in - Calm Calm - N/A   Unknown
11:52 AM 72.0 °F 44.1 °F 37% 29.94 in - Calm Calm - N/A   Unknown
12:52 PM 80.1 °F 44.1 °F 28% 29.90 in - Calm Calm - N/A   Unknown
1:52 PM 80.1 °F 45.0 °F 29% 29.88 in - South 3.5 mph - N/A   Unknown
2:52 PM 84.0 °F 44.1 °F 25% 29.87 in - South 4.6 mph - N/A   Unknown
3:52 PM 84.9 °F 42.1 °F 22% 29.86 in - SSE 4.6 mph - N/A   Unknown
4:52 PM 86.0 °F 42.1 °F 21% 29.84 in - SSE 3.5 mph - N/A   Unknown
5:52 PM 82.9 °F 46.9 °F 28% 29.84 in - Calm Calm - N/A   Unknown
6:52 PM 75.0 °F 50.0 °F 41% 29.86 in - Calm Calm - N/A   Unknown
7:52 PM 66.9 °F 53.1 °F 61% 29.88 in - Calm Calm - N/A   Unknown
8:52 PM 62.1 °F 53.1 °F 72% 29.91 in - Calm Calm - N/A   Unknown
9:52 PM 60.1 °F 53.1 °F 78% 29.93 in - Calm Calm - N/A   Unknown
10:52 PM 57.9 °F 52.0 °F 81% 29.96 in - Calm Calm - N/A   Unknown
11:52 PM 55.9 °F 51.1 °F 84% 29.98 in - North 3.5 mph - N/A   Unknown